Monticello, IA

7:54 AM CDT on June 25, 2017 (GMT -0500)
Monticello Regional

Weather History for KMXO - March, 2012

Change the Weather History Date:

Thursday, March 8, 2012

  Actual Average Record
Temperature  
Mean Temperature 35 °F -  
Max Temperature 42 °F 35 °F 69 °F (2016)
Min Temperature 28 °F 21 °F -2 °F (2008)
Degree Days  
Heating Degree Days 30    
Moisture  
Dew Point 23 °F    
Average Humidity 62    
Maximum Humidity 81    
Minimum Humidity 39    
Precipitation  
Precipitation 0.00 in - - ()
Sea Level Pressure  
Sea Level Pressure 30.16 in    
Wind  
Wind Speed 15 mph (WNW)    
Max Wind Speed 26 mph    
Max Gust Speed 34 mph    
Visibility 10 miles    
Events      
Averages and records for this station are not official NWS values.
T = Trace of Precipitation, MM = Missing Value Source: NWS Daily Summary

Daily Weather History Graph

Daily Weather History Graph

Search for Another Location

Airport or City:

Trip Planner

Search our weather history database for the weather conditions in past years. The results will help you decide how hot, cold, wet, or windy it might be!

Date:

Astronomy

Mar. 08, 2012 Rise Set
Actual Time 6:27 AM CST 6:03 PM CST
Civil Twilight 5:59 AM CST 6:31 PM CST
Nautical Twilight 5:27 AM CST 7:04 PM CST
Astronomical Twilight 4:54 AM CST 7:36 PM CST
Moon 6:53 PM CST (3/8) 6:10 AM CST (3/8)
Length of Visible Light 12h 31m
Length of Day
11h 36m
Full, 100% of the Moon is Illuminated
Mar 8
Full
Mar 14
Last Quarter
Mar 22
New
Mar 30
First Quarter
Apr 6
Full

Hourly Weather History & Observations

Time (CST) Temp. Windchill Dew Point Humidity Pressure Visibility Wind Dir Wind Speed Gust Speed Precip Events Conditions
12:15 AM 33.8 °F 24.8 °F 28.4 °F 81% 29.93 in 10.0 mi NW 12.7 mph 20.7 mph N/A   Overcast
12:35 AM 33.8 °F 23.9 °F 28.4 °F 81% 29.95 in 10.0 mi WNW 15.0 mph 20.7 mph N/A   Overcast
12:55 AM 33.8 °F 22.8 °F 28.4 °F 81% 29.96 in 10.0 mi WNW 18.4 mph 26.5 mph N/A   Overcast
1:15 AM 33.8 °F 24.3 °F 26.6 °F 75% 29.96 in 10.0 mi NW 13.8 mph 24.2 mph N/A   Overcast
1:35 AM 33.8 °F 23.9 °F 26.6 °F 75% 29.96 in 10.0 mi NW 15.0 mph 21.9 mph N/A   Overcast
2:35 AM 32.0 °F 23.0 °F 24.8 °F 75% 29.99 in 10.0 mi WNW 11.5 mph 27.6 mph N/A   Overcast
2:55 AM 32.0 °F 21.2 °F 24.8 °F 75% 29.99 in 10.0 mi NW 16.1 mph 23.0 mph N/A   Overcast
3:15 AM 32.0 °F 21.2 °F 24.8 °F 75% 30.00 in 10.0 mi WNW 16.1 mph - N/A   Overcast
3:35 AM 30.2 °F 21.3 °F 24.8 °F 80% 30.01 in 10.0 mi WNW 10.4 mph - N/A   Mostly Cloudy
3:55 AM 30.2 °F 17.8 °F 24.8 °F 80% 30.03 in 10.0 mi WNW 19.6 mph 27.6 mph N/A   Overcast
4:15 AM 30.2 °F 18.9 °F 24.8 °F 80% 30.04 in 10.0 mi WNW 16.1 mph 24.2 mph N/A   Overcast
4:35 AM 30.2 °F 17.8 °F 24.8 °F 80% 30.05 in 10.0 mi NW 19.6 mph 27.6 mph N/A   Mostly Cloudy
4:55 AM 30.2 °F 18.1 °F 24.8 °F 80% 30.06 in 10.0 mi NW 18.4 mph 26.5 mph N/A   Mostly Cloudy
5:15 AM 30.2 °F 19.8 °F 23.0 °F 75% 30.08 in 10.0 mi NW 13.8 mph - N/A   Scattered Clouds
5:35 AM 30.2 °F 19.8 °F 23.0 °F 75% 30.09 in 10.0 mi WNW 13.8 mph 23.0 mph N/A   Unknown
5:55 AM 30.2 °F 18.9 °F 21.2 °F 69% 30.10 in 10.0 mi WNW 16.1 mph 24.2 mph N/A   Unknown
6:15 AM 30.2 °F 19.8 °F 23.0 °F 75% 30.11 in 10.0 mi NW 13.8 mph 18.4 mph N/A   Clear
6:35 AM 28.4 °F 18.5 °F 21.2 °F 74% 30.12 in 10.0 mi WNW 11.5 mph 18.4 mph N/A   Clear
6:55 AM 28.4 °F 18.0 °F 21.2 °F 74% 30.13 in 10.0 mi WNW 12.7 mph 18.4 mph N/A   Clear
7:15 AM 28.4 °F 18.0 °F 21.2 °F 74% 30.13 in 10.0 mi NW 12.7 mph - N/A   Clear
7:35 AM 28.4 °F 19.1 °F 21.2 °F 74% 30.14 in 10.0 mi WNW 10.4 mph 19.6 mph N/A   Clear
7:55 AM 30.2 °F 18.9 °F 21.2 °F 69% 30.14 in 10.0 mi WNW 16.1 mph 21.9 mph N/A   Clear
8:15 AM 30.2 °F 20.2 °F 23.0 °F 75% 30.14 in 10.0 mi NW 12.7 mph 19.6 mph N/A   Clear
8:35 AM 30.2 °F 21.3 °F 21.2 °F 69% 30.16 in 10.0 mi NW 10.4 mph - N/A   Clear
8:55 AM 32.0 °F 21.6 °F 21.2 °F 64% 30.17 in 10.0 mi NW 15.0 mph 23.0 mph N/A   Clear
9:15 AM 33.8 °F 24.3 °F 21.2 °F 60% 30.18 in 10.0 mi NW 13.8 mph 18.4 mph N/A   Clear
9:35 AM 33.8 °F 23.5 °F 21.2 °F 60% 30.20 in 10.0 mi WNW 16.1 mph 26.5 mph N/A   Clear
9:55 AM 33.8 °F 22.8 °F 21.2 °F 60% 30.21 in 10.0 mi NW 18.4 mph 26.5 mph N/A   Clear
10:15 AM 35.6 °F 25.5 °F 21.2 °F 56% 30.21 in 10.0 mi NW 17.3 mph 24.2 mph N/A   Clear
10:35 AM 35.6 °F 25.2 °F 21.2 °F 56% 30.22 in 10.0 mi West 18.4 mph - N/A   Clear
11:15 AM 37.4 °F 26.4 °F 23.0 °F 56% 30.24 in 10.0 mi WNW 23.0 mph 31.1 mph N/A   Clear
11:55 AM 39.2 °F 29.3 °F 24.8 °F 56% 30.23 in 10.0 mi NW 20.7 mph 28.8 mph N/A   Mostly Cloudy
12:15 PM 39.2 °F 28.7 °F 24.8 °F 56% 30.23 in 10.0 mi WNW 23.0 mph 34.5 mph N/A   Scattered Clouds
12:35 PM 39.2 °F 29.6 °F 24.8 °F 56% 30.23 in 10.0 mi NW 19.6 mph 31.1 mph N/A   Mostly Cloudy
12:55 PM 41.0 °F 30.5 °F 24.8 °F 53% 30.22 in 10.0 mi WNW 26.5 mph 31.1 mph N/A   Mostly Cloudy
1:15 PM 41.0 °F 31.9 °F 24.8 °F 53% 30.22 in 10.0 mi NW 19.6 mph 29.9 mph N/A   Scattered Clouds
1:35 PM 41.0 °F 31.1 °F 21.2 °F 45% 30.21 in 10.0 mi NW 23.0 mph 34.5 mph N/A   Scattered Clouds
1:55 PM 41.0 °F 30.7 °F 21.2 °F 45% 30.21 in 10.0 mi WNW 25.3 mph 34.5 mph N/A   Scattered Clouds
2:15 PM 41.0 °F 32.2 °F 23.0 °F 49% 30.20 in 10.0 mi NW 18.4 mph 27.6 mph N/A   Scattered Clouds
2:35 PM 42.8 °F 33.8 °F 21.2 °F 42% 30.20 in 10.0 mi WNW 21.9 mph 27.6 mph N/A   Unknown
2:55 PM 42.8 °F 35.8 °F 21.2 °F 42% 30.19 in 10.0 mi WNW 13.8 mph 26.5 mph N/A   Unknown
3:15 PM 42.8 °F 35.4 °F 21.2 °F 42% 30.20 in 10.0 mi NW 15.0 mph 25.3 mph N/A   Unknown
3:35 PM 42.8 °F 34.8 °F 19.4 °F 39% 30.20 in 10.0 mi NW 17.3 mph 25.3 mph N/A   Unknown
3:55 PM 42.8 °F 34.5 °F 19.4 °F 39% 30.21 in 10.0 mi WNW 18.4 mph - N/A   Unknown
4:15 PM 42.8 °F 34.3 °F 21.2 °F 42% 30.22 in 10.0 mi WNW 19.6 mph 25.3 mph N/A   Clear
4:35 PM 41.0 °F 32.2 °F 21.2 °F 45% 30.23 in 10.0 mi WNW 18.4 mph 24.2 mph N/A   Clear
4:55 PM 41.0 °F 33.1 °F 19.4 °F 42% 30.24 in 10.0 mi WNW 15.0 mph 21.9 mph N/A   Clear
5:15 PM 41.0 °F 34.3 °F 19.4 °F 42% 30.24 in 10.0 mi WNW 11.5 mph 19.6 mph N/A   Clear
5:35 PM 39.2 °F 32.5 °F 23.0 °F 52% 30.23 in 10.0 mi West 10.4 mph - N/A   Clear
5:55 PM 37.4 °F 32.1 °F 23.0 °F 56% 30.24 in 10.0 mi West 6.9 mph - N/A   Clear
6:15 PM 35.6 °F 29.2 °F 23.0 °F 60% 30.24 in 10.0 mi West 8.1 mph - N/A   Clear
6:35 PM 37.4 °F 29.8 °F 23.0 °F 56% 30.25 in 10.0 mi West 11.5 mph - N/A   Clear
6:55 PM 37.4 °F 29.8 °F 23.0 °F 56% 30.25 in 10.0 mi West 11.5 mph 17.3 mph N/A   Clear
7:15 PM 37.4 °F 31.4 °F 23.0 °F 56% 30.26 in 10.0 mi West 8.1 mph - N/A   Clear
7:35 PM 35.6 °F 28.6 °F 23.0 °F 60% 30.26 in 10.0 mi West 9.2 mph - N/A   Clear
7:55 PM 35.6 °F 28.6 °F 23.0 °F 60% 30.26 in 10.0 mi West 9.2 mph - N/A   Clear
8:15 PM 35.6 °F 29.2 °F 23.0 °F 60% 30.26 in 10.0 mi West 8.1 mph - N/A   Clear
8:35 PM 35.6 °F 28.6 °F 24.8 °F 65% 30.27 in 10.0 mi West 9.2 mph - N/A   Clear
8:55 PM 35.6 °F 27.5 °F 24.8 °F 65% 30.27 in 10.0 mi West 11.5 mph - N/A   Clear
9:15 PM 35.6 °F 27.5 °F 24.8 °F 65% 30.26 in 10.0 mi WSW 11.5 mph 17.3 mph N/A   Clear
9:35 PM 35.6 °F 27.5 °F 24.8 °F 65% 30.26 in 10.0 mi West 11.5 mph - N/A   Clear
9:55 PM 37.4 °F 29.8 °F 24.8 °F 60% 30.25 in 10.0 mi West 11.5 mph 18.4 mph N/A   Clear
10:15 PM 37.4 °F 29.3 °F 24.8 °F 60% 30.26 in 10.0 mi West 12.7 mph 18.4 mph N/A   Clear
10:35 PM 37.4 °F 28.2 °F 24.8 °F 60% 30.26 in 10.0 mi West 16.1 mph 21.9 mph N/A   Clear
11:15 PM 35.6 °F 26.2 °F 26.6 °F 70% 30.28 in 10.0 mi WNW 15.0 mph - N/A   Scattered Clouds
11:35 PM 37.4 °F 26.6 °F 26.6 °F 65% 30.28 in 10.0 mi WNW 21.9 mph 29.9 mph N/A   Unknown
11:55 PM 37.4 °F 27.5 °F 26.6 °F 65% 30.29 in 10.0 mi NW 18.4 mph 25.3 mph N/A   Clear